Campo, CA

7:38 AM PDT on October 23, 2017 (GMT -0700)
Campo

Weather History for KCZZ - November, 2011

Change the Weather History Date:

Tuesday, November 29, 2011

  Actual Average Record
Temperature  
Mean Temperature 59 °F 50 °F  
Max Temperature 77 °F 65 °F 86 °F (1980)
Min Temperature 40 °F 34 °F 19 °F (1991)
Degree Days  
Heating Degree Days 6 16  
Month to date heating degree days 433 345  
Since 1 July heating degree days 619 555  
Cooling Degree Days 0 0  
Month to date cooling degree days 0 0  
Year to date cooling degree days 733 839  
Growing Degree Days 8 (Base 50)    
Moisture  
Dew Point 20 °F    
Average Humidity 32    
Maximum Humidity 55    
Minimum Humidity 9    
Precipitation  
Precipitation 0.00 in 0.06 in 0.59 in (1975)
Month to date precipitation 2.94 1.08  
Year to date precipitation 11.50 13.41  
Since 1 July precipitation 3.75  
Snow  
Snow 0.00 in - - ()
Month to date snowfall 0.0  
Year to date snowfall 0.0  
Snow Depth 0.00 in    
Sea Level Pressure  
Sea Level Pressure 30.04 in    
Wind  
Wind Speed 10 mph (NE)    
Max Wind Speed 21 mph    
Max Gust Speed 26 mph    
T = Trace of Precipitation, MM = Missing Value Source: NWS Daily Summary

Daily Weather History Graph

Daily Weather History Graph

Search for Another Location

Airport or City:

Trip Planner

Search our weather history database for the weather conditions in past years. The results will help you decide how hot, cold, wet, or windy it might be!

Date:

Astronomy

Nov. 29, 2011 Rise Set
Actual Time 6:28 AM PST 4:40 PM PST
Civil Twilight 6:01 AM PST 5:06 PM PST
Nautical Twilight 5:31 AM PST 5:37 PM PST
Astronomical Twilight 5:01 AM PST 6:06 PM PST
Moon 10:22 AM PST (11/29) 9:31 PM PST (11/29)
Length of Visible Light 11h 05m
Length of Day
10h 12m
Waxing Crescent, 25% of the Moon is Illuminated
Nov 29
Waxing Crescent
Dec 2
First Quarter
Dec 10
Full
Dec 17
Last Quarter
Dec 24
New

Hourly Weather History & Observations

Time (PST) Temp. Windchill Dew Point Humidity Pressure Visibility Wind Dir Wind Speed Gust Speed Precip Events Conditions
12:52 AM 43.0 °F 38.8 °F 27.0 °F 53% 30.06 in - NE 6.9 mph - N/A   Unknown
1:52 AM 43.0 °F 38.8 °F 26.1 °F 51% 30.05 in - ENE 6.9 mph - N/A   Unknown
2:52 AM 41.0 °F 37.1 °F 27.0 °F 57% 30.05 in - NE 5.8 mph - N/A   Unknown
3:52 AM 43.0 °F 38.8 °F 25.0 °F 49% 30.04 in - ENE 6.9 mph - N/A   Unknown
4:52 AM 43.0 °F 38.8 °F 24.1 °F 47% 30.06 in - NE 6.9 mph - N/A   Unknown
5:52 AM 46.0 °F 43.1 °F 23.0 °F 40% 30.07 in - NE 5.8 mph - N/A   Unknown
6:52 AM 48.0 °F - 21.0 °F 34% 30.09 in - NNE 4.6 mph - N/A   Unknown
7:52 AM 55.0 °F - 24.1 °F 30% 30.09 in - North 5.8 mph - N/A   Unknown
8:52 AM 68.0 °F - 17.1 °F 14% 30.08 in - ENE 12.7 mph 18.4 mph N/A   Unknown
9:52 AM 73.0 °F - 17.1 °F 12% 30.06 in - ENE 12.7 mph 21.9 mph N/A   Unknown
10:52 AM 75.9 °F - 15.1 °F 10% 30.04 in - East 18.4 mph - N/A   Unknown
11:52 AM 75.0 °F - 14.0 °F 10% 30.02 in - East 17.3 mph 21.9 mph N/A   Unknown
12:52 PM 73.9 °F - 14.0 °F 10% 30.01 in - East 17.3 mph 23.0 mph N/A   Unknown
1:52 PM 72.0 °F - 16.0 °F 12% 30.00 in - East 12.7 mph - N/A   Unknown
2:52 PM 75.0 °F - 14.0 °F 10% 29.99 in - East 18.4 mph - N/A   Unknown
3:52 PM 71.1 °F - 15.1 °F 12% 30.00 in - East 11.5 mph - N/A   Unknown
4:52 PM 64.0 °F - 15.1 °F 15% 30.01 in - ENE 10.4 mph - N/A   Unknown
5:52 PM 59.0 °F - 18.0 °F 20% 30.03 in - North 6.9 mph - N/A   Unknown
6:52 PM 53.1 °F - 18.0 °F 25% 30.04 in - North 5.8 mph - N/A   Unknown
7:52 PM 45.0 °F - 21.0 °F 39% 30.06 in - Calm Calm - N/A   Unknown
8:52 PM 45.0 °F - 21.0 °F 39% 30.04 in - Calm Calm - N/A   Unknown
9:52 PM 46.0 °F 42.5 °F 19.9 °F 35% 30.04 in - NE 6.9 mph - N/A   Unknown
10:52 PM 44.1 °F 42.5 °F 21.0 °F 40% 30.04 in - NNE 3.5 mph - N/A   Unknown
11:52 PM 41.0 °F 38.0 °F 19.9 °F 43% 30.03 in - ENE 4.6 mph - N/A   Unknown